| time (UTC) | temp F | wind direction | speed MPH | gust MPH | rain 1hr in | rain 24hr in | rain mn in | humidity % | barometer mb |
| 20260505152717 | 48 | 265 | 0.0 | 0.0 | 0.05 | 0.62 | 0.58 | 99 | 1005.0 |
| 20260505152157 | 48 | 359 | 0.0 | 0.0 | 0.04 | 0.60 | 0.56 | 99 | 1004.5 |
| 20260505151637 | 48 | 283 | 1.0 | 3.0 | 0.04 | 0.59 | 0.55 | 99 | 1005.0 |
| 20260505151117 | 49 | 7 | 0.0 | 0.0 | 0.04 | 0.60 | 0.55 | 99 | 1004.7 |
| 20260505150557 | 49 | 289 | 0.0 | 0.0 | 0.04 | 0.61 | 0.55 | 99 | 1004.8 |
| 20260505140157 | 55 | 290 | 0.0 | 1.0 | 0.11 | 0.57 | 0.51 | 99 | 1004.2 |
| 20260505124717 | 56 | 256 | 0.0 | 0.0 | 0.00 | 0.46 | 0.40 | 99 | 1003.6 |
| 20260505124157 | 56 | 256 | 0.0 | 0.0 | 0.00 | 0.46 | 0.40 | 99 | 1004.0 |
| 20260505123637 | 56 | 256 | 0.0 | 0.0 | 0.00 | 0.46 | 0.40 | 99 | 1003.9 |
| 20260505123117 | 56 | 256 | 0.0 | 0.0 | 0.00 | 0.46 | 0.40 | 99 | 1003.9 |
| 20260505122557 | 55 | 256 | 0.0 | 0.0 | 0.00 | 0.46 | 0.40 | 99 | 1003.9 |
| 20260505122037 | 55 | 256 | 0.0 | 0.0 | 0.00 | 0.46 | 0.40 | 99 | 1004.0 |
| 20260505121517 | 55 | 256 | 0.0 | 0.0 | 0.00 | 0.46 | 0.40 | 99 | 1004.0 |
| 20260505120958 | 55 | 255 | 0.0 | 0.0 | 0.00 | 0.46 | 0.40 | 99 | 1003.9 |
| 20260505120437 | 55 | 256 | 0.0 | 0.0 | 0.00 | 0.46 | 0.40 | 99 | 1003.8 |
| 20260505115917 | 55 | 256 | 0.0 | 0.0 | 0.00 | 0.46 | 0.40 | 99 | 1003.7 |
| 20260505115358 | 55 | 256 | 0.0 | 0.0 | 0.00 | 0.46 | 0.40 | 99 | 1003.5 |
| 20260505114838 | 55 | 256 | 0.0 | 0.0 | 0.00 | 0.46 | 0.40 | 99 | 1003.6 |
| 20260505114318 | 54 | 256 | 0.0 | 0.0 | 0.00 | 0.46 | 0.40 | 99 | 1003.7 |
| 20260505113757 | 54 | 256 | 0.0 | 0.0 | 0.00 | 0.46 | 0.40 | 99 | 1003.3 |
| 20260505113238 | 54 | 256 | 0.0 | 0.0 | 0.00 | 0.46 | 0.40 | 99 | 1003.1 |
| 20260505112718 | 54 | 256 | 0.0 | 0.0 | 0.00 | 0.46 | 0.40 | 99 | 1002.6 |
| 20260505112158 | 54 | 256 | 0.0 | 0.0 | 0.00 | 0.46 | 0.40 | 99 | 1002.6 |
| 20260505111638 | 54 | 256 | 0.0 | 0.0 | 0.00 | 0.46 | 0.40 | 99 | 1002.4 |
| 20260505111118 | 54 | 256 | 0.0 | 0.0 | 0.00 | 0.46 | 0.40 | 99 | 1002.5 |
| 20260505110557 | 54 | 256 | 0.0 | 0.0 | 0.00 | 0.46 | 0.40 | 99 | 1002.6 |
| 20260505101758 | 54 | 202 | 0.0 | 0.0 | 0.00 | 0.46 | 0.40 | 99 | 1001.6 |
| 20260505101237 | 54 | 203 | 0.0 | 0.0 | 0.00 | 0.46 | 0.40 | 99 | 1001.2 |
| 20260505100717 | 54 | 180 | 0.0 | 0.0 | 0.01 | 0.46 | 0.40 | 99 | 1001.3 |
| 20260505100158 | 54 | 161 | 0.0 | 0.0 | 0.01 | 0.46 | 0.40 | 99 | 1001.2 |
| 20260505095637 | 54 | 216 | 0.0 | 0.0 | 0.01 | 0.46 | 0.40 | 99 | 1001.4 |
| 20260505095102 | 54 | 236 | 3.0 | 4.0 | 0.02 | 0.46 | 0.40 | 99 | 1001.6 |
| 20260505094542 | 54 | 226 | 0.0 | 0.0 | 0.03 | 0.46 | 0.40 | 99 | 1001.3 |
| 20260505094022 | 54 | 177 | 0.0 | 0.0 | 0.04 | 0.46 | 0.40 | 99 | 1000.7 |
| 20260505093446 | 54 | 140 | 0.0 | 1.0 | 0.06 | 0.46 | 0.40 | 99 | 1000.3 |
| 20260505092926 | 54 | 198 | 0.0 | 0.0 | 0.07 | 0.46 | 0.40 | 99 | 1000.9 |
| 20260505092406 | 54 | 197 | 1.0 | 2.0 | 0.08 | 0.46 | 0.40 | 99 | 1001.3 |
| 20260505091327 | 55 | 220 | 1.0 | 2.0 | 0.11 | 0.46 | 0.40 | 99 | 1001.3 |
| 20260505090806 | 54 | 202 | 0.0 | 1.0 | 0.11 | 0.45 | 0.39 | 99 | 1001.2 |
| 20260505090245 | 54 | 164 | 0.0 | 1.0 | 0.12 | 0.45 | 0.39 | 99 | 1001.4 |
| 20260505085726 | 54 | 170 | 4.0 | 5.0 | 0.12 | 0.45 | 0.39 | 99 | 1001.4 |
| 20260505085206 | 54 | 163 | 3.0 | 4.0 | 0.13 | 0.44 | 0.38 | 99 | 1002.1 |
| 20260505084646 | 54 | 237 | 4.0 | 5.0 | 0.14 | 0.43 | 0.37 | 99 | 1002.5 |
| 20260505084126 | 54 | 216 | 4.0 | 6.0 | 0.13 | 0.42 | 0.36 | 99 | 1002.5 |
| 20260505083606 | 54 | 209 | 2.0 | 5.0 | 0.14 | 0.41 | 0.35 | 99 | 1002.3 |
| 20260505083046 | 55 | 193 | 2.0 | 4.0 | 0.14 | 0.39 | 0.33 | 99 | 1002.6 |
| 20260505082526 | 55 | 220 | 3.0 | 4.0 | 0.15 | 0.38 | 0.32 | 99 | 1002.6 |
| 20260505082008 | 55 | 231 | 9.0 | 11.0 | 0.15 | 0.38 | 0.32 | 99 | 1003.0 |
| 20260505081446 | 55 | 233 | 5.0 | 6.0 | 0.13 | 0.35 | 0.29 | 99 | 1002.5 |
| 20260505080934 | 55 | 210 | 0.0 | 0.0 | 0.13 | 0.34 | 0.28 | 99 | 1002.2 |
| 20260505080334 | 55 | 140 | 0.0 | 0.0 | 0.13 | 0.33 | 0.27 | 99 | 1002.0 |
| 20260505075733 | 55 | 130 | 1.0 | 2.0 | 0.14 | 0.33 | 0.27 | 99 | 1001.4 |
| 20260505075133 | 55 | 147 | 0.0 | 0.0 | 0.13 | 0.31 | 0.25 | 99 | 1001.7 |
| 20260505073934 | 55 | 166 | 4.0 | 6.0 | 0.21 | 0.28 | 0.22 | 99 | 1003.0 |
| 20260505073334 | 54 | 207 | 0.0 | 0.0 | 0.19 | 0.26 | 0.20 | 99 | 1003.0 |
| 20260505072734 | 55 | 112 | 0.0 | 0.0 | 0.18 | 0.24 | 0.18 | 99 | 1002.9 |
| 20260505072134 | 55 | 118 | 0.0 | 0.0 | 0.17 | 0.23 | 0.17 | 98 | 1002.5 |
| 20260505071533 | 55 | 307 | 0.0 | 0.0 | 0.16 | 0.23 | 0.16 | 97 | 1002.8 |
| 20260505070934 | 55 | 272 | 1.0 | 1.0 | 0.14 | 0.22 | 0.14 | 97 | 1003.0 |
| 20260505070422 | 55 | 357 | 0.0 | 0.0 | 0.14 | 0.22 | 0.14 | 96 | 1003.1 |
| 20260505065903 | 55 | 357 | 0.0 | 0.0 | 0.14 | 0.22 | 0.14 | 94 | 1002.9 |
| 20260505065342 | 55 | 291 | 0.0 | 0.0 | 0.12 | 0.20 | 0.12 | 91 | 1003.5 |
| 20260505064834 | 56 | 292 | 0.0 | 1.0 | 0.09 | 0.17 | 0.09 | 90 | 1003.6 |
| 20260505064233 | 57 | 296 | 0.0 | 1.0 | 0.02 | 0.10 | 0.02 | 88 | 1004.0 |
| 20260505063633 | 58 | 40 | 1.0 | 2.0 | 0.01 | 0.09 | 0.01 | 85 | 1003.5 |
| 20260505063033 | 59 | 306 | 1.0 | 2.0 | 0.01 | 0.09 | 0.01 | 80 | 1004.0 |
| 20260505062433 | 60 | 21 | 11.0 | 19.0 | 0.00 | 0.08 | 0.00 | 75 | 1003.3 |
| 20260505061834 | 61 | 282 | 1.0 | 2.0 | 0.00 | 0.08 | 0.00 | 77 | 1002.5 |
| 20260505061326 | 63 | 337 | 3.0 | 4.0 | 0.00 | 0.08 | 0.00 | 76 | 1001.9 |
| 20260505060806 | 65 | 111 | 0.0 | 1.0 | 0.00 | 0.08 | 0.00 | 73 | 1002.0 |
| 20260505060246 | 67 | 243 | 7.0 | 10.0 | 0.00 | 0.08 | 0.00 | 67 | 1001.5 |
| 20260505055726 | 67 | 238 | 6.0 | 8.0 | 0.00 | 0.08 | 0.00 | 65 | 999.8 |
| 20260505055206 | 67 | 204 | 5.0 | 6.0 | 0.00 | 0.08 | 0.00 | 64 | 999.4 |
| 20260505054646 | 67 | 229 | 9.0 | 14.0 | 0.00 | 0.08 | 0.00 | 64 | 999.4 |
| 20260505054126 | 68 | 216 | 7.0 | 10.0 | 0.00 | 0.08 | 0.00 | 62 | 998.9 |
| 20260505053606 | 68 | 228 | 9.0 | 11.0 | 0.00 | 0.08 | 0.00 | 61 | 999.0 |
| 20260505053046 | 68 | 216 | 10.0 | 12.0 | 0.00 | 0.08 | 0.00 | 61 | 999.0 |
| 20260505052526 | 68 | 234 | 9.0 | 11.0 | 0.00 | 0.08 | 0.00 | 61 | 999.3 |
| 20260505052007 | 69 | 197 | 11.0 | 14.0 | 0.00 | 0.08 | 0.00 | 60 | 999.0 |
| 20260505051446 | 69 | 232 | 4.0 | 5.0 | 0.00 | 0.08 | 0.00 | 59 | 998.9 |
| 20260505050926 | 69 | 257 | 5.0 | 6.0 | 0.00 | 0.08 | 0.00 | 60 | 999.2 |
| 20260505050406 | 69 | 151 | 8.0 | 10.0 | 0.00 | 0.08 | 0.00 | 60 | 999.3 |
| 20260505041607 | 69 | 240 | 8.0 | 10.0 | 0.00 | 0.08 | 0.08 | 59 | 998.7 |
| 20260505041046 | 70 | 241 | 7.0 | 9.0 | 0.00 | 0.08 | 0.08 | 57 | 998.5 |
| 20260505040526 | 70 | 223 | 10.0 | 12.0 | 0.00 | 0.08 | 0.08 | 57 | 998.7 |
| 20260505040007 | 70 | 228 | 13.0 | 15.0 | 0.00 | 0.08 | 0.08 | 57 | 998.8 |
| 20260505035446 | 70 | 217 | 8.0 | 9.0 | 0.00 | 0.08 | 0.08 | 56 | 999.0 |
| 20260505034926 | 70 | 250 | 10.0 | 13.0 | 0.00 | 0.08 | 0.08 | 58 | 998.9 |
| 20260505034406 | 70 | 216 | 13.0 | 18.0 | 0.00 | 0.08 | 0.08 | 57 | 999.0 |
| 20260505033846 | 70 | 242 | 10.0 | 13.0 | 0.00 | 0.08 | 0.08 | 57 | 999.2 |
| 20260505033326 | 70 | 194 | 13.0 | 17.0 | 0.00 | 0.08 | 0.08 | 57 | 999.2 |
| 20260505032246 | 70 | 202 | 7.0 | 9.0 | 0.00 | 0.08 | 0.08 | 57 | 999.1 |
| 20260505031734 | 69 | 225 | 3.0 | 5.0 | 0.00 | 0.08 | 0.08 | 58 | 998.9 |
| 20260505031134 | 69 | 214 | 14.0 | 15.0 | 0.00 | 0.08 | 0.08 | 57 | 999.0 |
| 20260505030534 | 69 | 235 | 6.0 | 6.0 | 0.00 | 0.08 | 0.08 | 57 | 999.1 |
| 20260505030034 | 69 | 254 | 7.0 | 9.0 | 0.00 | 0.08 | 0.08 | 57 | 999.1 |
| 20260505025434 | 69 | 221 | 2.0 | 4.0 | 0.00 | 0.08 | 0.08 | 60 | 999.3 |
| 20260505024834 | 69 | 215 | 6.0 | 9.0 | 0.00 | 0.08 | 0.08 | 58 | 999.3 |
| 20260505024234 | 69 | 235 | 6.0 | 9.0 | 0.00 | 0.08 | 0.08 | 58 | 999.2 |
| 20260505023634 | 69 | 243 | 6.0 | 6.0 | 0.00 | 0.08 | 0.08 | 59 | 999.3 |
| 20260505023034 | 69 | 231 | 4.0 | 6.0 | 0.00 | 0.08 | 0.08 | 59 | 999.3 |
| 20260505022434 | 69 | 211 | 4.0 | 5.0 | 0.00 | 0.08 | 0.08 | 59 | 999.2 |
| 20260505021834 | 69 | 157 | 1.0 | 3.0 | 0.00 | 0.08 | 0.08 | 57 | 999.3 |
| 20260505021234 | 69 | 219 | 3.0 | 4.0 | 0.00 | 0.08 | 0.08 | 57 | 999.1 |
| 20260505020634 | 69 | 232 | 5.0 | 6.0 | 0.00 | 0.08 | 0.08 | 57 | 999.1 |
| 20260505020034 | 69 | 242 | 9.0 | 11.0 | 0.00 | 0.08 | 0.08 | 56 | 998.8 |
| 20260505015434 | 69 | 238 | 2.0 | 3.0 | 0.00 | 0.08 | 0.08 | 56 | 998.9 |
| 20260505014834 | 68 | 224 | 3.0 | 4.0 | 0.00 | 0.08 | 0.08 | 57 | 998.6 |
| 20260505014234 | 69 | 227 | 1.0 | 2.0 | 0.00 | 0.08 | 0.08 | 57 | 998.6 |
| 20260505013726 | 69 | 209 | 4.0 | 5.0 | 0.00 | 0.08 | 0.08 | 56 | 998.5 |
| 20260505013207 | 69 | 223 | 2.0 | 3.0 | 0.00 | 0.08 | 0.08 | 56 | 998.7 |
| 20260505012647 | 69 | 168 | 4.0 | 5.0 | 0.00 | 0.08 | 0.08 | 55 | 998.6 |
| 20260505012134 | 69 | 228 | 6.0 | 8.0 | 0.00 | 0.08 | 0.08 | 55 | 998.6 |
| 20260505010934 | 70 | 184 | 2.0 | 3.0 | 0.00 | 0.08 | 0.08 | 54 | 998.7 |
| 20260505010334 | 70 | 225 | 6.0 | 8.0 | 0.00 | 0.08 | 0.08 | 54 | 998.6 |
| 20260505005759 | 70 | 231 | 3.0 | 4.0 | 0.00 | 0.08 | 0.08 | 55 | 998.5 |
| 20260505005239 | 70 | 239 | 3.0 | 3.0 | 0.00 | 0.08 | 0.08 | 55 | 998.4 |
| 20260505004734 | 70 | 211 | 2.0 | 3.0 | 0.00 | 0.08 | 0.08 | 54 | 998.5 |
| 20260505004134 | 70 | 245 | 6.0 | 8.0 | 0.00 | 0.08 | 0.08 | 54 | 998.1 |
| 20260505003534 | 70 | 229 | 5.0 | 6.0 | 0.00 | 0.08 | 0.08 | 53 | 998.2 |
| 20260505002934 | 71 | 240 | 3.0 | 4.0 | 0.00 | 0.08 | 0.08 | 54 | 998.2 |
| 20260505002434 | 71 | 183 | 3.0 | 5.0 | 0.00 | 0.08 | 0.08 | 52 | 998.1 |
| 20260505001834 | 71 | 209 | 4.0 | 4.0 | 0.00 | 0.08 | 0.08 | 53 | 998.2 |
| 20260505001234 | 72 | 213 | 4.0 | 8.0 | 0.00 | 0.08 | 0.08 | 52 | 998.3 |
| 20260505000134 | 72 | 216 | 3.0 | 4.0 | 0.00 | 0.08 | 0.08 | 52 | 998.5 |
| 20260504235534 | 72 | 231 | 7.0 | 9.0 | 0.00 | 0.08 | 0.08 | 51 | 998.3 |
| 20260504234934 | 73 | 208 | 4.0 | 5.0 | 0.00 | 0.08 | 0.08 | 52 | 998.4 |
| 20260504234334 | 73 | 218 | 5.0 | 6.0 | 0.00 | 0.08 | 0.08 | 50 | 998.4 |
| 20260504233734 | 73 | 205 | 6.0 | 8.0 | 0.00 | 0.08 | 0.08 | 50 | 998.3 |
| 20260504233134 | 74 | 171 | 3.0 | 5.0 | 0.00 | 0.08 | 0.08 | 49 | 998.4 |
| 20260504232534 | 74 | 230 | 13.0 | 18.0 | 0.00 | 0.08 | 0.08 | 48 | 998.3 |
| 20260504231934 | 74 | 197 | 4.0 | 8.0 | 0.00 | 0.08 | 0.08 | 52 | 998.6 |
| 20260504231334 | 74 | 213 | 4.0 | 4.0 | 0.00 | 0.08 | 0.08 | 51 | 998.7 |
| 20260504230734 | 74 | 219 | 9.0 | 10.0 | 0.00 | 0.08 | 0.08 | 51 | 998.7 |
| 20260504230134 | 74 | 222 | 9.0 | 11.0 | 0.00 | 0.08 | 0.08 | 51 | 998.9 |
| 20260504225634 | 74 | 164 | 4.0 | 5.0 | 0.00 | 0.08 | 0.08 | 51 | 998.5 |
| 20260504225119 | 74 | 222 | 7.0 | 10.0 | 0.00 | 0.08 | 0.08 | 51 | 998.9 |
| 20260504224559 | 74 | 246 | 3.0 | 4.0 | 0.00 | 0.08 | 0.08 | 52 | 998.8 |
| 20260504224034 | 75 | 230 | 11.0 | 14.0 | 0.00 | 0.08 | 0.08 | 51 | 998.9 |
| 20260504223519 | 74 | 203 | 7.0 | 8.0 | 0.00 | 0.08 | 0.08 | 51 | 998.8 |
| 20260504222958 | 75 | 220 | 6.0 | 10.0 | 0.00 | 0.08 | 0.08 | 51 | 999.0 |
| 20260504221934 | 75 | 227 | 4.0 | 6.0 | 0.00 | 0.08 | 0.08 | 52 | 998.9 |
| 20260504221415 | 75 | 214 | 9.0 | 12.0 | 0.00 | 0.08 | 0.08 | 53 | 999.3 |
| 20260504220855 | 75 | 225 | 6.0 | 6.0 | 0.00 | 0.08 | 0.08 | 52 | 999.2 |
| 20260504220334 | 74 | 221 | 2.0 | 5.0 | 0.00 | 0.08 | 0.08 | 53 | 999.4 |
| 20260504215834 | 74 | 225 | 4.0 | 4.0 | 0.00 | 0.08 | 0.08 | 53 | 999.3 |
| 20260504215327 | 74 | 241 | 8.0 | 10.0 | 0.00 | 0.08 | 0.08 | 55 | 999.5 |
| 20260504214807 | 74 | 215 | 9.0 | 10.0 | 0.00 | 0.08 | 0.08 | 53 | 999.4 |
| 20260504214247 | 75 | 224 | 7.0 | 9.0 | 0.00 | 0.08 | 0.08 | 54 | 999.4 |
| 20260504213727 | 74 | 235 | 8.0 | 14.0 | 0.00 | 0.08 | 0.08 | 52 | 999.4 |
| 20260504213207 | 75 | 238 | 8.0 | 12.0 | 0.00 | 0.08 | 0.08 | 53 | 999.4 |
| 20260504212647 | 74 | 167 | 9.0 | 15.0 | 0.00 | 0.08 | 0.08 | 51 | 999.3 |
| 20260504212127 | 75 | 251 | 7.0 | 11.0 | 0.00 | 0.08 | 0.08 | 54 | 999.5 |
| 20260504211607 | 75 | 206 | 7.0 | 13.0 | 0.00 | 0.08 | 0.08 | 54 | 999.6 |
| 20260504211047 | 75 | 210 | 9.0 | 11.0 | 0.00 | 0.08 | 0.08 | 55 | 999.8 |
| 20260504210527 | 75 | 257 | 6.0 | 8.0 | 0.00 | 0.08 | 0.08 | 57 | 999.9 |
| 20260504210008 | 74 | 211 | 7.0 | 11.0 | 0.00 | 0.08 | 0.08 | 55 | 999.8 |
| 20260504205447 | 74 | 248 | 13.0 | 17.0 | 0.00 | 0.08 | 0.08 | 54 | 999.8 |
| 20260504204927 | 74 | 232 | 6.0 | 9.0 | 0.00 | 0.08 | 0.08 | 57 | 999.9 |
| 20260504204407 | 74 | 207 | 1.0 | 2.0 | 0.00 | 0.08 | 0.08 | 62 | 1000.1 |
| 20260504203847 | 73 | 254 | 6.0 | 8.0 | 0.00 | 0.08 | 0.08 | 62 | 1000.2 |
| 20260504203327 | 73 | 242 | 6.0 | 11.0 | 0.00 | 0.08 | 0.08 | 61 | 1000.4 |
| 20260504202751 | 72 | 230 | 6.0 | 8.0 | 0.00 | 0.08 | 0.08 | 63 | 1000.4 |
| 20260504202231 | 72 | 147 | 6.0 | 8.0 | 0.00 | 0.08 | 0.08 | 62 | 1000.4 |
| 20260504201711 | 72 | 197 | 4.0 | 8.0 | 0.00 | 0.08 | 0.08 | 62 | 1000.5 |
| 20260504201134 | 71 | 209 | 2.0 | 3.0 | 0.00 | 0.08 | 0.08 | 64 | 1000.5 |
| 20260504200615 | 71 | 216 | 4.0 | 4.0 | 0.00 | 0.08 | 0.08 | 65 | 1001.0 |
| 20260504200055 | 71 | 165 | 5.0 | 8.0 | 0.00 | 0.08 | 0.08 | 66 | 1001.1 |
| 20260504195534 | 71 | 185 | 3.0 | 4.0 | 0.00 | 0.08 | 0.08 | 68 | 1001.0 |
| 20260504195015 | 71 | 236 | 9.0 | 12.0 | 0.00 | 0.08 | 0.08 | 68 | 1001.3 |
| 20260504194455 | 71 | 164 | 5.0 | 6.0 | 0.00 | 0.08 | 0.08 | 67 | 1001.0 |
| 20260504193934 | 71 | 239 | 4.0 | 6.0 | 0.00 | 0.08 | 0.08 | 66 | 1001.0 |
| 20260504193415 | 71 | 182 | 5.0 | 9.0 | 0.00 | 0.08 | 0.08 | 68 | 1001.2 |
| 20260504192855 | 70 | 222 | 2.0 | 3.0 | 0.00 | 0.08 | 0.08 | 72 | 1001.3 |
| 20260504192334 | 70 | 151 | 3.0 | 4.0 | 0.00 | 0.08 | 0.08 | 77 | 1001.1 |
| 20260504191815 | 70 | 131 | 1.0 | 2.0 | 0.00 | 0.08 | 0.08 | 77 | 1001.3 |
| 20260504191255 | 70 | 217 | 1.0 | 1.0 | 0.00 | 0.08 | 0.08 | 79 | 1001.3 |
| 20260504190719 | 70 | 124 | 4.0 | 5.0 | 0.00 | 0.08 | 0.08 | 80 | 1001.3 |
| 20260504190159 | 68 | 111 | 4.0 | 5.0 | 0.00 | 0.08 | 0.08 | 80 | 1001.2 |
| 20260504185639 | 67 | 178 | 0.0 | 1.0 | 0.00 | 0.08 | 0.08 | 83 | 1001.4 |
| 20260504185119 | 66 | 140 | 0.0 | 1.0 | 0.00 | 0.08 | 0.08 | 85 | 1001.4 |
| 20260504184559 | 66 | 129 | 0.0 | 1.0 | 0.00 | 0.08 | 0.08 | 85 | 1001.2 |
| 20260504184039 | 65 | 136 | 0.0 | 1.0 | 0.00 | 0.08 | 0.08 | 86 | 1001.6 |
| 20260504183519 | 65 | 136 | 2.0 | 3.0 | 0.00 | 0.08 | 0.08 | 87 | 1001.5 |
| 20260504182959 | 64 | 136 | 0.0 | 0.0 | 0.00 | 0.08 | 0.08 | 87 | 1001.8 |
| 20260504182439 | 65 | 136 | 4.0 | 4.0 | 0.00 | 0.08 | 0.08 | 87 | 1001.5 |
| 20260504181919 | 65 | 217 | 0.0 | 1.0 | 0.00 | 0.08 | 0.08 | 86 | 1002.1 |
| 20260504181359 | 66 | 123 | 2.0 | 3.0 | 0.00 | 0.08 | 0.08 | 86 | 1001.8 |
| 20260504180840 | 66 | 186 | 1.0 | 2.0 | 0.00 | 0.08 | 0.08 | 86 | 1001.6 |
| 20260504180319 | 66 | 141 | 2.0 | 3.0 | 0.01 | 0.08 | 0.08 | 87 | 1001.6 |
| 20260504175759 | 65 | 134 | 7.0 | 9.0 | 0.01 | 0.08 | 0.08 | 88 | 1002.0 |
| 20260504175239 | 64 | 203 | 1.0 | 2.0 | 0.02 | 0.08 | 0.08 | 91 | 1002.0 |
| 20260504174719 | 63 | 121 | 0.0 | 1.0 | 0.02 | 0.08 | 0.08 | 94 | 1001.9 |
| 20260504174159 | 62 | 121 | 1.0 | 2.0 | 0.02 | 0.08 | 0.08 | 96 | 1002.1 |
| 20260504173120 | 60 | 176 | 0.0 | 0.0 | 0.02 | 0.08 | 0.08 | 98 | 1002.4 |
| 20260504172559 | 59 | 176 | 0.0 | 0.0 | 0.03 | 0.08 | 0.08 | 98 | 1002.4 |
| 20260504172039 | 58 | 176 | 0.0 | 0.0 | 0.03 | 0.08 | 0.08 | 98 | 1002.8 |
| 20260504171519 | 58 | 176 | 0.0 | 0.0 | 0.03 | 0.08 | 0.08 | 97 | 1003.2 |
| 20260504171000 | 58 | 176 | 0.0 | 0.0 | 0.03 | 0.08 | 0.08 | 96 | 1003.0 |
| 20260504170439 | 58 | 176 | 0.0 | 0.0 | 0.04 | 0.08 | 0.08 | 96 | 1003.8 |